Dublin, VA

7:58 AM EST on December 09, 2019 (GMT -0500)
New River Valley

Weather History for KPSK - October, 2019

Change the Weather History Date:

Thursday, October 17, 2019

  Actual Average (KBCB) Record (KBCB)
Temperature  
Mean Temperature 50 °F -  
Max Temperature 57 °F 65 °F 80 °F (1963)
Min Temperature 43 °F 38 °F 26 °F (1970)
Degree Days  
Heating Degree Days 15    
Moisture  
Dew Point 35 °F    
Average Humidity 60    
Maximum Humidity 78    
Minimum Humidity 43    
Precipitation  
Precipitation 0.00 in - - ()
Sea Level Pressure  
Sea Level Pressure 29.88 in    
Wind  
Wind Speed 17 mph (WNW)    
Max Wind Speed 26 mph    
Max Gust Speed 36 mph    
Visibility 10 miles    
Events      
Averages and records for this station are not official NWS values.
T = Trace of Precipitation, MM = Missing Value Source: NWS Daily Summary

Daily Weather History Graph

Daily Weather History Graph

Search for Another Location

Airport or City:

Astronomy

Oct. 17, 2019 Rise Set
Actual Time 7:32 AM EDT 6:43 PM EDT
Civil Twilight 7:05 AM EDT 7:09 PM EDT
Nautical Twilight 6:35 AM EDT 7:39 PM EDT
Astronomical Twilight 6:05 AM EDT 8:09 PM EDT
Moon 9:18 PM EDT (10/17) 10:58 AM EDT (10/17)
Length of Visible Light 12h 03m
Length of Day
11h 11m
Waning Gibbous, 87% of the Moon is Illuminated
Oct 17
Waning Gibbous
Oct 21
Last Quarter
Oct 27
New
Nov 4
First Quarter
Nov 12
Full

Hourly Weather History & Observations

Time (EDT) Temp. Windchill Dew Point Humidity Pressure Visibility Wind Dir Wind Speed Gust Speed Precip Events Conditions
12:15 AM 44.2 °F 35.2 °F 37.4 °F 77% 29.87 in 10.0 mi WNW 24.2 mph 29.9 mph N/A   Overcast
12:35 AM 43.9 °F 35.9 °F 37.6 °F 78% 29.86 in 10.0 mi WNW 18.4 mph 31.1 mph N/A   Light Drizzle
12:55 AM 44.4 °F 35.5 °F 36.7 °F 74% 29.85 in 10.0 mi WNW 24.2 mph 33.4 mph N/A   Overcast
1:15 AM 44.6 °F 36.1 °F 36.7 °F 74% 29.85 in 10.0 mi WNW 21.9 mph 27.6 mph N/A   Overcast
1:35 AM 44.2 °F 37.0 °F 36.5 °F 74% 29.84 in 10.0 mi West 16.1 mph 25.3 mph N/A   Overcast
1:55 AM 44.6 °F 36.6 °F 36.5 °F 73% 29.84 in 10.0 mi WNW 19.6 mph 28.8 mph N/A   Overcast
2:15 AM 44.6 °F 37.2 °F 36.5 °F 73% 29.84 in 10.0 mi WNW 17.3 mph 32.2 mph N/A   Overcast
2:35 AM 44.1 °F 37.1 °F 36.9 °F 76% 29.83 in 10.0 mi WNW 15.0 mph 27.6 mph N/A   Overcast
2:55 AM 44.2 °F 37.3 °F 36.9 °F 75% 29.83 in 10.0 mi WNW 15.0 mph 26.5 mph N/A   Overcast
3:15 AM 44.6 °F 38.8 °F 36.7 °F 74% 29.83 in 10.0 mi WNW 11.5 mph 25.3 mph N/A   Overcast
3:35 AM 44.8 °F 37.7 °F 36.0 °F 71% 29.83 in 10.0 mi WNW 16.1 mph 28.8 mph N/A   Overcast
3:55 AM 45.1 °F 36.0 °F 35.4 °F 69% 29.82 in 10.0 mi NW 26.5 mph 35.7 mph N/A   Overcast
4:15 AM 45.0 °F 37.4 °F 35.1 °F 68% 29.82 in 10.0 mi WNW 18.4 mph 28.8 mph N/A   Overcast
4:35 AM 45.0 °F 38.5 °F 35.2 °F 69% 29.82 in 10.0 mi NNW 13.8 mph 24.2 mph N/A   Overcast
4:55 AM 45.1 °F 38.8 °F 35.1 °F 68% 29.83 in 10.0 mi WNW 13.8 mph 23.0 mph N/A   Overcast
5:15 AM 45.1 °F 38.1 °F 34.7 °F 67% 29.83 in 10.0 mi WNW 16.1 mph 26.5 mph N/A   Overcast
5:35 AM 45.0 °F 36.6 °F 34.9 °F 68% 29.83 in 10.0 mi West 21.9 mph 29.9 mph N/A   Overcast
5:55 AM 44.8 °F 38.0 °F 34.7 °F 68% 29.83 in 10.0 mi WNW 15.0 mph 29.9 mph N/A   Overcast
6:15 AM 44.6 °F 38.4 °F 34.5 °F 68% 29.83 in 10.0 mi NW 12.7 mph 32.2 mph N/A   Overcast
6:35 AM 44.6 °F 36.9 °F 34.3 °F 67% 29.84 in 10.0 mi WNW 18.4 mph 24.2 mph N/A   Overcast
6:55 AM 44.6 °F 39.2 °F 34.3 °F 67% 29.84 in 10.0 mi WNW 10.4 mph 24.2 mph N/A   Overcast
7:15 AM 44.6 °F 38.8 °F 34.7 °F 68% 29.84 in 10.0 mi NW 11.5 mph 19.6 mph N/A   Overcast
7:35 AM 44.2 °F 37.6 °F 34.5 °F 69% 29.85 in 10.0 mi WNW 13.8 mph 26.5 mph N/A   Overcast
7:55 AM 44.1 °F 35.4 °F 33.8 °F 67% 29.86 in 10.0 mi WNW 21.9 mph 28.8 mph N/A   Overcast
8:15 AM 44.1 °F 36.8 °F 33.4 °F 66% 29.86 in 10.0 mi WNW 16.1 mph 21.9 mph N/A   Overcast
8:35 AM 44.6 °F 37.2 °F 33.4 °F 65% 29.87 in 10.0 mi NW 17.3 mph 28.8 mph N/A   Overcast
8:55 AM 45.5 °F 38.9 °F 33.6 °F 63% 29.87 in 10.0 mi NW 15.0 mph 27.6 mph N/A   Overcast
9:15 AM 45.7 °F 38.8 °F 34.0 °F 64% 29.87 in 10.0 mi NW 16.1 mph 24.2 mph N/A   Overcast
9:35 AM 46.6 °F - 34.0 °F 62% 29.88 in 10.0 mi WNW 15.0 mph 26.5 mph N/A   Overcast
9:55 AM 46.8 °F - 34.2 °F 62% 29.89 in 10.0 mi WNW 16.1 mph 25.3 mph N/A   Overcast
10:15 AM 48.0 °F - 34.9 °F 60% 29.89 in 10.0 mi NW 15.0 mph 23.0 mph N/A   Overcast
10:35 AM 48.2 °F - 34.9 °F 60% 29.89 in 10.0 mi WNW 13.8 mph 26.5 mph N/A   Mostly Cloudy
10:55 AM 48.7 °F - 34.7 °F 58% 29.90 in 10.0 mi WNW 12.7 mph 20.7 mph N/A   Mostly Cloudy
11:35 AM 50.5 °F - 35.1 °F 55% 29.91 in 10.0 mi NW 12.7 mph 18.4 mph N/A   Mostly Cloudy
11:55 AM 51.3 °F - 35.1 °F 54% 29.91 in 10.0 mi NW 15.0 mph 26.5 mph N/A   Mostly Cloudy
12:15 PM 51.8 °F - 35.8 °F 54% 29.90 in 10.0 mi West 15.0 mph 23.0 mph N/A   Scattered Clouds
12:35 PM 51.4 °F - 35.4 °F 54% 29.90 in 10.0 mi WNW 15.0 mph 25.3 mph N/A   Scattered Clouds
12:55 PM 52.5 °F - 36.1 °F 54% 29.90 in 10.0 mi West 16.1 mph 23.0 mph N/A   Scattered Clouds
1:15 PM 52.7 °F - 35.2 °F 52% 29.90 in 10.0 mi WNW 18.4 mph 26.5 mph N/A   Scattered Clouds
1:35 PM 53.4 °F - 35.6 °F 51% 29.90 in 10.0 mi WNW 15.0 mph 26.5 mph N/A   Clear
1:55 PM 53.8 °F - 35.1 °F 49% 29.89 in 10.0 mi WNW 13.8 mph 24.2 mph N/A   Clear
2:35 PM 55.0 °F - 34.9 °F 47% 29.87 in 10.0 mi West 15.0 mph 20.7 mph N/A   Clear
2:55 PM 55.4 °F - 34.3 °F 45% 29.87 in 10.0 mi West 19.6 mph 25.3 mph N/A   Clear
3:15 PM 55.8 °F - 33.4 °F 43% 29.86 in 10.0 mi WNW 19.6 mph 27.6 mph N/A   Clear
3:35 PM 56.5 °F - 36.0 °F 46% 29.86 in 10.0 mi WNW 12.7 mph 18.4 mph N/A   Clear
3:55 PM 57.0 °F - 34.7 °F 43% 29.87 in 10.0 mi NW 15.0 mph 19.6 mph N/A   Clear
4:15 PM 56.3 °F - 34.3 °F 44% 29.87 in 10.0 mi WNW 13.8 mph 23.0 mph N/A   Scattered Clouds
4:35 PM 56.7 °F - 34.2 °F 43% 29.88 in 10.0 mi WNW 10.4 mph 20.7 mph N/A   Clear
4:55 PM 56.5 °F - 34.0 °F 43% 29.89 in 10.0 mi WNW 10.4 mph - N/A   Clear
5:15 PM 56.1 °F - 34.0 °F 43% 29.89 in 10.0 mi NW 9.2 mph 20.7 mph N/A   Clear
5:35 PM 54.9 °F - 33.8 °F 45% 29.89 in 10.0 mi WNW 10.4 mph 23.0 mph N/A   Clear
5:55 PM 54.1 °F - 34.5 °F 48% 29.89 in 10.0 mi WNW 12.7 mph - N/A   Clear
6:15 PM 53.6 °F - 34.2 °F 48% 29.89 in 10.0 mi WNW 15.0 mph 18.4 mph N/A   Clear
6:35 PM 52.7 °F - 33.8 °F 49% 29.90 in 10.0 mi WNW 13.8 mph 20.7 mph N/A   Clear
6:55 PM 51.8 °F - 34.2 °F 51% 29.91 in 10.0 mi NW 11.5 mph 20.7 mph N/A   Clear
7:15 PM 50.7 °F - 34.7 °F 54% 29.91 in 10.0 mi West 9.2 mph 19.6 mph N/A   Clear
7:35 PM 50.9 °F - 34.7 °F 54% 29.91 in 10.0 mi WNW 15.0 mph 21.9 mph N/A   Clear
7:55 PM 50.0 °F - 34.9 °F 56% 29.93 in 10.0 mi WNW 10.4 mph - N/A   Clear
8:15 PM 50.0 °F - 34.9 °F 56% 29.93 in 10.0 mi West 13.8 mph 17.3 mph N/A   Scattered Clouds
8:35 PM 49.8 °F - 35.1 °F 57% 29.94 in 10.0 mi West 11.5 mph 19.6 mph N/A   Clear
8:55 PM 49.1 °F - 35.1 °F 58% 29.95 in 10.0 mi WNW 10.4 mph 21.9 mph N/A   Clear
9:15 PM 49.3 °F - 35.2 °F 58% 29.96 in 10.0 mi WNW 10.4 mph 17.3 mph N/A   Clear
9:35 PM 48.7 °F - 35.2 °F 60% 29.96 in 10.0 mi WNW 11.5 mph - N/A   Clear
9:55 PM 48.9 °F - 35.2 °F 59% 29.96 in 10.0 mi WNW 11.5 mph 17.3 mph N/A   Clear
10:15 PM 48.7 °F - 35.4 °F 60% 29.97 in 10.0 mi NW 10.4 mph - N/A   Clear
10:35 PM 48.4 °F - 35.6 °F 61% 29.98 in 10.0 mi NW 10.4 mph 20.7 mph N/A   Clear
10:55 PM 48.0 °F - 35.6 °F 62% 29.98 in 10.0 mi NW 10.4 mph 17.3 mph N/A   Clear
11:15 PM 47.7 °F - 35.6 °F 63% 29.98 in 10.0 mi NW 6.9 mph - N/A   Scattered Clouds
11:35 PM 47.8 °F - 35.8 °F 63% 29.98 in 10.0 mi NW 5.8 mph - N/A   Mostly Cloudy
11:55 PM 46.9 °F - 36.0 °F 66% 29.98 in 10.0 mi NW 8.1 mph - N/A   Scattered Clouds